Weather in Novobusino

Russia / Vladimir Oblast     56°17′04″N   39°40′54″E
temp.,
°C
wind,
m/s
gust,
m/s
humid.,
%
clouds,
%
prec.,
mm/h
press.,
hPa
HPBL,
m
26 february, fri
fri2600:00−1w359695 0.0 101291
03:00+1sw369898 0.1 1011175
06:00+1ssw37100100 1.3 1008166
09:00+2wsw613100100 2.8 1005315
12:00+3wsw513100100 0.3 1001307
15:00+3w616100100 1.8 999511
18:00+2w7158670 0.1 998701
21:00+1w7149575 0.3 998828
27 february, sat
sat2700:00+1wnw71497100 0.3 997824
03:00+1wnw71497100 0.6 998875
06:00−9nnw71390100 0.9 1000665
09:00−12nnw71290100 0.9 1004565
12:00−11nnw61089100 0.0 1006522
15:00−9nnw6109098 0.0 1009536
18:00−11nnw499499 0.0 1010277
21:00−12nnw499693 0.1 1013252
28 february, sun
sun2800:00−14nnw369776 0.0 1013127
03:00−15nnw359649 0.0 101591
06:00−13nnw359649 0.1 1015180
09:00−12nnw249469 0.2 1016208
12:00−8nnw359183 0.0 1016368
15:00−6nnw369292 0.1 1017456
18:00−6nne229698 0.1 101868
21:00−9ne129699 0.1 102021
1 march, mon
mon100:00−8ne119699 0.1 102121
03:00−9sw119699 0.1 102321
06:00−9wnw2296100 0.1 102422
09:00−9w2396100 0.1 102487
12:00−4wsw359086 0.0 1024469
15:00−2wsw589092 0.1 1022633
18:00−2wsw51193100 0.0 1019534
21:000wnw61296100 0.2 1017570
2 march, tue
tue200:00+1wnw61395100 0.3 1015641
03:00+1wnw61397100 0.3 1014651
06:00+1nw61295100 0.1 1013687
09:000wnw61197100 0.1 1012668
12:00+1nw71392100 0.2 1013983
15:00+1nw8138992 0.3 10121018
18:000nw6138497 0.1 1012810
21:00−1nw6138998 0.1 1013808